Wind_Speed
12 12 13 13 12 11 9 8 8 8 7 6 4 2 1 2 3 5 7 9 11 14 16 18 20 22 24 26 28 29 31 33 34 36 37 38 39 40 41 42 42 43 44 44
11 11 11 10 9 8 7 6 5 4 3 2 1 2 3 5 8 10 11 13 15 18 20 22 24 26 27 29 30 32 33 35 37 38 40 41 42 43 45 45 46 46 47 47
10 9 8 7 6 6 4 3 2 2 2 3 4 5 6 8 10 12 14 16 18 21 23 25 27 29 31 32 34 36 37 39 41 42 44 45 47 48 48 49 49 50 50 50
7 6 5 4 3 2 1 1 2 3 5 7 8 10 12 13 15 17 19 20 22 24 27 29 32 34 36 38 40 42 43 45 46 47 48 49 50 51 52 52 52 52 53 53
4 3 3 2 2 1 3 4 5 7 8 10 12 13 15 16 18 20 23 25 28 30 32 34 37 39 41 43 46 48 49 50 51 52 53 54 55 55 55 55 55 54 55 55
2 2 1 1 2 3 5 6 8 9 11 12 13 15 17 19 21 23 26 29 32 34 37 40 42 44 46 48 50 52 53 54 55 57 58 59 59 60 59 59 58 57 56 56
0 1 2 3 4 5 7 8 9 10 12 14 16 18 20 23 25 28 31 34 36 39 42 44 47 50 52 54 56 58 59 60 61 62 63 63 63 63 63 62 61 60 59 58
2 3 4 5 6 7 8 9 11 13 15 17 19 22 24 27 29 32 35 38 41 44 47 49 52 55 58 60 62 64 65 66 67 68 68 68 67 66 65 65 63 62 61 60
3 3 4 6 8 9 10 12 14 16 18 20 23 25 28 30 33 36 39 42 45 47 50 52 55 58 61 63 65 66 68 70 70 71 70 70 70 69 67 66 66 64 63 62
4 5 6 8 9 11 13 15 17 19 21 23 26 28 31 34 37 40 43 45 48 50 52 55 57 59 61 62 64 65 66 67 69 70 70 70 70 69 68 66 65 64 63 62
6 7 8 10 12 14 16 18 19 21 24 26 29 31 34 37 40 43 46 48 51 53 54 55 56 58 60 62 63 64 65 66 67 67 67 67 67 67 66 64 62 62 60 58
9 10 12 13 15 17 18 20 22 24 26 29 31 34 37 41 44 46 48 50 52 53 54 55 57 59 61 62 63 64 64 64 64 63 63 63 63 62 61 60 58 57 56 55
12 13 14 16 18 19 21 22 24 27 29 31 34 37 41 44 46 48 50 52 53 54 55 57 58 60 61 62 63 63 63 62 61 60 59 59 58 57 55 53 52 51 50 49
14 16 17 19 20 22 23 25 27 29 32 34 37 41 44 46 48 50 52 54 55 56 57 59 60 60 61 61 62 61 61 60 58 56 56 55 53 52 50 48 45 44 44 45
17 18 19 21 23 24 26 28 30 32 34 37 40 44 46 48 50 52 54 56 57 58 60 61 60 60 61 61 61 60 58 56 55 54 52 51 49 47 44 43 41 40 40 41
20 20 22 23 25 26 28 30 32 34 37 40 43 46 48 50 52 54 56 58 59 59 60 61 61 61 61 61 60 57 55 54 52 50 48 47 44 42 40 38 36 36 36 38
22 23 24 25 27 28 30 32 34 37 40 43 46 48 50 52 54 55 57 58 60 60 61 62 62 61 61 59 57 55 52 51 49 47 45 42 40 38 36 35 33 31 32 34
24 25 26 28 29 30 32 34 36 39 42 45 48 50 52 53 55 56 58 59 60 61 62 63 62 61 59 57 54 52 50 48 46 43 40 38 35 34 33 32 30 29 29 30
27 28 29 30 31 33 35 37 39 41 44 47 50 52 53 55 56 57 59 60 61 62 62 63 62 60 56 53 51 49 47 45 42 39 36 33 31 30 29 28 27 27 27 28
29 30 31 32 33 35 37 39 41 43 46 49 51 53 54 56 57 58 60 61 62 63 64 62 60 56 53 50 48 45 44 41 37 33 30 29 27 26 25 24 25 25 25 25
31 32 33 34 35 37 39 40 42 45 48 51 53 55 56 57 58 59 61 62 63 64 63 60 57 53 49 47 45 42 39 36 32 29 27 26 24 23 22 22 22 22 22 22
33 34 35 36 37 39 40 42 44 47 50 52 55 56 57 57 59 60 62 63 63 63 60 57 53 50 47 44 41 38 35 32 29 26 24 22 21 20 19 18 18 19 19 20
35 36 36 37 38 40 41 43 46 48 51 54 56 57 58 59 60 61 61 62 62 60 57 54 51 47 44 41 38 35 32 29 25 23 21 19 17 16 15 14 15 15 17 18
35 36 37 38 39 40 42 44 47 49 52 55 57 58 58 59 60 61 61 61 60 57 54 52 49 45 41 38 35 32 29 25 22 20 18 17 16 15 13 12 12 13 15 16
36 37 37 38 39 41 43 45 48 50 53 56 58 59 59 60 60 60 60 59 58 55 52 50 47 43 39 35 32 29 26 23 21 19 18 16 15 13 12 11 11 12 13 15
36 37 38 39 40 41 44 46 48 51 54 56 58 59 59 59 59 60 59 57 55 53 50 47 44 40 37 33 30 27 25 23 21 19 17 15 13 12 11 10 10 10 11 13
37 37 38 39 40 42 44 46 49 52 54 56 58 58 59 58 58 58 57 55 53 51 48 45 42 38 35 31 28 26 24 22 20 17 15 13 11 10 9 8 9 10 11 12
Wind_Direction
123 125 124 119 117 119 116 109 107 102 100 98 95 90 10 298 299 290 285 285 285 284 284 283 281 280 279 279 280 279 278 277 275 275 275 274 274 273 272 271 270 270 269 268
125 126 126 122 120 120 119 118 113 104 104 74 41 329 314 305 301 298 296 295 296 295 293 290 287 285 284 284 282 281 280 279 278 277 276 276 275 274 274 273 272 271 270 268
128 128 127 126 123 122 120 112 88 38 8 346 334 329 321 314 310 307 305 303 301 299 296 294 292 291 290 289 287 286 285 284 282 281 279 278 277 275 274 273 272 271 270 269
126 125 127 115 116 101 83 20 354 342 333 327 324 321 317 313 310 309 307 305 302 299 297 295 294 293 292 290 289 288 287 286 285 283 282 280 279 278 276 274 273 271 270 269
118 116 108 92 74 27 350 335 331 327 323 321 319 317 315 312 310 309 307 306 304 302 300 298 296 294 293 292 291 290 289 287 286 285 283 282 280 279 277 276 274 273 271 269
116 104 83 16 349 338 332 328 322 319 318 317 316 315 313 312 312 311 309 307 305 304 302 300 298 296 295 294 293 291 290 289 288 287 285 284 282 280 278 277 275 274 272 270
59 335 330 322 319 319 321 322 318 317 317 317 317 315 314 313 312 310 308 307 305 303 302 300 298 296 295 294 293 292 291 290 289 288 286 284 283 281 279 278 276 274 272 270
296 303 304 308 313 314 314 315 315 315 315 315 315 313 312 311 309 308 307 305 304 303 301 299 298 296 295 294 292 291 290 289 288 287 286 285 283 282 280 279 276 274 272 270
310 314 313 315 316 315 315 316 316 316 316 315 314 313 312 311 310 309 308 307 305 303 301 300 299 297 296 295 293 292 290 288 287 286 286 285 283 282 281 280 277 275 272 270
315 316 317 318 319 319 318 317 316 315 315 314 314 313 312 312 311 310 310 309 307 305 304 303 301 300 299 297 296 295 293 291 288 287 286 284 283 282 281 279 277 275 273 270
319 318 319 318 317 317 316 314 313 313 313 313 313 313 313 313 312 312 311 310 309 307 306 305 303 301 300 299 298 297 295 293 291 289 287 285 284 283 282 280 278 275 272 269
312 311 312 313 312 312 313 312 312 312 313 313 314 314 315 315 314 313 313 312 311 310 308 307 305 303 302 302 301 299 298 295 293 291 289 287 286 284 283 281 277 274 270 266
305 306 308 309 310 311 312 312 313 313 314 314 315 316 316 316 316 315 315 314 313 312 311 309 307 306 305 304 303 301 299 297 294 293 292 290 288 285 282 280 276 272 268 264
303 305 307 309 310 311 311 312 313 314 315 315 316 317 318 317 317 317 317 316 316 315 313 312 310 308 307 306 305 303 301 299 297 295 294 293 291 288 284 279 274 267 263 260
303 305 306 308 309 310 311 312 313 315 316 316 318 318 319 319 319 318 318 318 318 316 315 314 312 311 309 308 306 304 303 302 300 298 296 295 292 289 285 280 273 266 260 256
301 303 305 308 309 310 311 312 314 316 317 318 319 320 320 320 320 320 320 320 319 318 317 316 314 313 311 309 307 306 305 304 302 300 298 295 292 289 285 280 273 266 260 255
300 302 304 307 309 310 311 313 315 317 318 319 320 321 322 322 322 322 322 322 321 321 320 318 317 315 312 310 309 308 306 305 304 302 298 294 291 288 284 279 272 267 261 255
299 301 303 306 308 310 311 313 315 317 318 320 321 322 323 323 323 324 324 324 323 323 322 321 319 317 314 312 311 309 308 307 305 303 299 295 291 288 283 277 270 264 260 255
298 300 302 304 307 309 311 313 316 318 319 321 323 324 324 324 325 325 326 326 325 325 324 322 320 319 317 315 313 312 311 309 307 304 301 298 293 290 283 274 267 260 257 253
296 298 301 303 305 308 311 314 316 318 320 323 324 325 325 325 326 327 327 327 327 327 326 324 323 321 320 318 316 315 314 313 311 307 303 300 296 291 284 273 265 260 256 252
295 297 299 301 304 308 311 314 316 319 321 323 325 326 326 326 327 327 328 328 328 327 327 326 325 325 323 321 320 318 317 316 313 309 305 302 298 293 284 273 265 260 253 247
294 296 298 301 304 307 310 314 317 320 322 324 325 326 327 327 328 328 328 329 329 329 329 329 328 328 326 325 324 322 321 319 315 311 308 306 301 295 287 276 265 257 250 244
293 296 298 301 304 307 310 314 317 320 322 324 326 327 327 328 328 329 329 330 331 331 331 331 330 330 329 328 328 327 325 323 320 316 312 308 303 298 292 281 266 255 246 240
293 295 298 301 305 307 311 314 318 320 323 325 326 327 328 329 329 330 330 331 332 333 333 333 332 331 331 330 329 329 328 326 324 320 316 310 305 300 292 281 266 252 242 238
292 295 298 301 304 308 311 315 318 321 323 325 327 328 329 329 330 331 331 332 333 334 334 334 333 333 332 332 331 331 331 330 327 324 320 314 307 299 288 276 262 249 242 238
291 294 297 301 305 308 311 315 318 321 324 326 327 328 329 330 330 331 332 333 333 334 335 335 335 334 333 332 332 331 331 330 328 324 320 315 308 299 287 273 259 250 242 235
291 294 298 301 305 308 312 315 318 321 324 326 328 329 329 330 331 332 333 333 333 334 334 335 335 335 334 334 334 333 331 331 331 329 325 318 311 301 287 272 259 250 241 232
Height
5631 5632 5633 5634 5635 5636 5638 5639 5641 5642 5642 5644 5645 5646 5647 5648 5648 5649 5650 5651 5652 5652 5652 5652 5652 5652 5651 5651 5650 5650 5650 5649 5649 5649 5648 5648 5648 5648 5648 5648 5648 5648 5648 5649
5634 5635 5636 5637 5638 5639 5640 5641 5642 5643 5645 5645 5646 5647 5647 5648 5648 5648 5648 5648 5648 5648 5647 5647 5646 5645 5644 5642 5641 5640 5639 5638 5638 5637 5636 5635 5635 5634 5634 5633 5633 5633 5634 5634
5637 5638 5639 5640 5641 5641 5642 5643 5644 5644 5646 5645 5646 5646 5646 5646 5646 5646 5646 5645 5644 5643 5642 5640 5638 5637 5635 5633 5632 5630 5628 5627 5625 5623 5622 5621 5620 5619 5619 5618 5618 5618 5618 5618
5639 5641 5641 5644 5642 5643 5643 5644 5644 5644 5645 5645 5645 5644 5644 5643 5643 5642 5641 5640 5639 5637 5635 5633 5630 5628 5625 5623 5620 5618 5616 5614 5611 5609 5607 5605 5604 5603 5601 5601 5600 5600 5600 5601
5641 5642 5643 5644 5643 5643 5644 5644 5644 5644 5643 5643 5642 5642 5641 5640 5639 5637 5636 5634 5632 5629 5626 5624 5621 5617 5614 5611 5607 5604 5602 5599 5596 5594 5591 5589 5587 5585 5584 5583 5582 5582 5582 5582
5642 5643 5643 5645 5644 5644 5645 5644 5643 5642 5642 5641 5640 5640 5639 5637 5635 5632 5630 5627 5624 5620 5616 5612 5609 5605 5601 5597 5593 5589 5586 5582 5578 5575 5573 5570 5567 5566 5564 5563 5562 5562 5562 5562
5643 5643 5644 5644 5644 5644 5645 5645 5642 5641 5640 5639 5638 5637 5635 5632 5629 5627 5624 5620 5616 5611 5607 5601 5596 5591 5587 5582 5577 5573 5568 5564 5559 5555 5552 5549 5546 5544 5542 5541 5541 5541 5541 5542
5643 5643 5646 5643 5643 5643 5643 5641 5640 5639 5637 5636 5634 5632 5629 5627 5623 5620 5616 5611 5606 5601 5595 5589 5583 5577 5571 5566 5560 5555 5549 5544 5539 5534 5530 5526 5524 5521 5519 5518 5518 5518 5518 5520
5643 5645 5643 5642 5641 5641 5640 5639 5637 5636 5634 5632 5630 5627 5624 5620 5616 5612 5607 5601 5595 5589 5583 5576 5569 5562 5555 5548 5541 5535 5529 5523 5517 5512 5508 5504 5501 5498 5496 5494 5493 5494 5494 5496
5642 5642 5641 5640 5639 5638 5637 5636 5634 5632 5630 5627 5624 5621 5617 5613 5608 5602 5596 5590 5583 5576 5569 5561 5553 5545 5537 5529 5522 5515 5508 5501 5495 5489 5485 5480 5477 5474 5472 5470 5469 5469 5470 5472
5640 5640 5639 5638 5637 5636 5634 5632 5630 5627 5624 5621 5618 5614 5609 5604 5598 5592 5585 5577 5570 5562 5554 5546 5537 5529 5520 5511 5503 5495 5488 5480 5473 5467 5462 5457 5453 5450 5447 5446 5443 5444 5445 5447
5639 5638 5637 5636 5634 5632 5630 5627 5625 5622 5618 5615 5610 5606 5600 5594 5587 5580 5572 5564 5556 5547 5539 5530 5521 5512 5502 5493 5484 5476 5468 5459 5452 5445 5439 5435 5431 5428 5424 5422 5421 5420 5421 5423
5637 5635 5634 5632 5630 5628 5625 5622 5619 5615 5612 5607 5602 5597 5590 5583 5576 5568 5559 5550 5542 5533 5523 5514 5504 5495 5485 5475 5465 5456 5447 5439 5431 5425 5419 5414 5409 5406 5404 5402 5400 5399 5400 5402
5633 5631 5630 5627 5625 5622 5619 5616 5612 5608 5604 5599 5593 5587 5580 5572 5564 5555 5546 5537 5527 5518 5508 5497 5487 5477 5467 5457 5447 5437 5428 5419 5412 5406 5400 5394 5390 5386 5383 5382 5382 5382 5382 5383
5629 5627 5625 5622 5620 5616 5613 5609 5605 5601 5596 5590 5584 5576 5569 5560 5552 5542 5533 5523 5513 5502 5491 5481 5470 5460 5449 5438 5428 5419 5410 5402 5394 5388 5382 5377 5372 5368 5366 5364 5364 5365 5366 5368
5624 5621 5619 5616 5613 5610 5606 5602 5597 5592 5587 5580 5573 5566 5557 5548 5539 5529 5519 5508 5498 5487 5476 5464 5453 5442 5431 5420 5410 5402 5393 5385 5377 5371 5365 5360 5356 5353 5351 5349 5349 5350 5351 5353
5618 5615 5613 5610 5606 5602 5598 5594 5589 5583 5577 5570 5563 5554 5545 5536 5526 5516 5505 5494 5483 5471 5459 5448 5437 5425 5414 5403 5393 5385 5378 5370 5363 5356 5350 5346 5342 5339 5337 5336 5336 5337 5338 5340
5611 5609 5606 5603 5599 5595 5590 5585 5580 5574 5567 5560 5552 5543 5533 5524 5514 5503 5493 5481 5469 5457 5444 5432 5420 5409 5397 5387 5378 5370 5362 5355 5348 5342 5336 5332 5329 5326 5324 5324 5324 5325 5327 5329
5604 5601 5598 5595 5591 5586 5582 5576 5570 5564 5557 5549 5540 5531 5521 5511 5501 5490 5479 5468 5456 5445 5432 5418 5405 5393 5383 5373 5364 5356 5348 5341 5334 5329 5324 5320 5317 5315 5313 5313 5314 5316 5318 5320
5596 5593 5590 5586 5582 5578 5573 5567 5561 5554 5547 5538 5529 5520 5510 5499 5489 5478 5467 5454 5442 5430 5418 5405 5392 5380 5370 5360 5351 5343 5335 5328 5322 5317 5314 5310 5308 5306 5304 5304 5305 5307 5309 5312
5588 5585 5581 5577 5573 5569 5563 5557 5551 5544 5536 5528 5519 5509 5499 5488 5477 5466 5455 5443 5430 5417 5404 5391 5379 5368 5358 5349 5340 5332 5325 5318 5313 5309 5305 5302 5300 5298 5297 5296 5297 5299 5301 5304
5579 5575 5572 5568 5564 5559 5554 5548 5541 5534 5526 5517 5507 5497 5487 5477 5466 5454 5442 5430 5418 5405 5393 5380 5369 5358 5349 5340 5331 5323 5317 5310 5305 5301 5298 5295 5293 5291 5290 5290 5291 5293 5295 5298
5569 5566 5562 5559 5554 5549 5544 5537 5531 5523 5515 5506 5496 5486 5476 5465 5454 5443 5432 5419 5406 5394 5382 5371 5360 5350 5340 5332 5324 5317 5310 5304 5299 5295 5292 5290 5288 5286 5285 5285 5286 5287 5290 5293
5559 5556 5553 5549 5544 5539 5533 5527 5520 5512 5504 5495 5485 5475 5465 5454 5442 5430 5419 5407 5396 5384 5373 5362 5352 5342 5333 5325 5318 5311 5305 5300 5295 5291 5288 5286 5284 5282 5282 5281 5282 5283 5285 5288
5549 5546 5543 5539 5534 5529 5523 5516 5509 5501 5493 5483 5474 5463 5453 5442 5432 5420 5409 5397 5386 5375 5365 5354 5344 5335 5327 5320 5313 5307 5301 5296 5292 5288 5285 5282 5280 5279 5278 5278 5279 5280 5282 5284
5539 5536 5533 5528 5524 5518 5513 5506 5499 5491 5482 5473 5463 5453 5442 5431 5420 5410 5399 5388 5377 5367 5357 5347 5338 5330 5322 5315 5309 5303 5298 5293 5289 5285 5282 5279 5277 5276 5275 5275 5276 5277 5279 5281
5529 5526 5522 5518 5513 5508 5502 5495 5488 5480 5472 5463 5453 5442 5432 5421 5411 5400 5390 5379 5370 5359 5350 5341 5332 5325 5317 5311 5305 5300 5295 5290 5286 5282 5279 5277 5275 5274 5273 5273 5274 5275 5276 5278